Theta_e
290 289 289 290 290 290 290 290 290 290 290 290 290 290 290 290 290 290 290 290 289 289 289 289 289 289 289 289 289 289 289 289 289 289 289 289 289 289 290 290 290 290 290 290 290 290 290 290 290 290 290 290 290 290 290 290 290 290 290 291 291 291 291 291 291 292 291 292 292 292 292 292 292 292 293 293 293 294 296 298 301 304 307 309 312 313
289 289 289 289 290 290 290 289 289 289 289 289 289 289 290 290 290 289 289 289 289 289 289 289 289 289 289 289 289 289 289 289 289 289 289 289 289 289 289 289 289 290 290 290 290 290 290 290 290 290 290 290 289 290 290 290 290 290 290 290 290 290 290 290 290 290 291 291 291 291 291 291 291 292 292 292 292 293 294 295 298 300 303 306 308 311
289 289 289 289 289 289 289 289 289 289 289 289 289 289 289 289 289 289 289 289 289 289 289 289 289 289 289 289 289 289 289 289 289 289 289 289 289 289 289 289 289 289 289 289 289 289 289 289 289 289 289 289 289 289 289 289 289 289 289 289 289 289 290 290 290 290 290 290 291 291 291 291 291 291 291 292 292 293 294 295 296 298 300 302 305 307
289 289 289 289 289 289 289 288 288 288 288 288 288 288 289 289 289 289 289 289 289 288 288 288 288 289 289 289 289 289 289 289 289 289 289 289 289 289 289 289 289 289 289 289 289 289 289 289 289 289 289 289 289 289 289 289 289 289 289 289 289 289 289 289 290 290 290 290 290 290 290 291 291 291 291 291 292 293 293 294 295 296 298 300 302 304
288 288 288 288 288 288 288 288 288 288 288 288 288 288 288 288 288 288 288 288 289 288 288 288 288 288 288 288 289 289 289 289 289 289 289 289 289 289 289 289 289 289 289 289 289 289 289 289 289 289 289 289 289 289 289 289 289 289 289 289 289 289 289 289 289 289 290 290 290 290 290 290 290 291 291 291 292 292 293 293 294 295 296 298 299 301
288 288 288 288 288 288 288 287 287 287 288 288 288 288 288 288 288 288 288 288 289 288 288 288 288 288 288 288 288 289 289 289 289 289 289 289 289 289 289 289 289 289 289 289 289 289 289 289 289 289 289 289 289 289 289 288 288 288 289 289 289 289 289 289 289 289 289 289 290 290 290 290 290 290 290 291 291 291 292 292 293 294 295 296 298 299
287 287 288 288 288 287 287 287 287 287 287 287 288 288 288 288 288 288 288 288 288 288 288 288 288 288 288 288 288 289 289 289 289 289 289 289 289 289 289 289 289 289 289 289 288 288 289 289 289 289 289 289 288 288 288 288 288 288 288 288 289 289 289 289 289 289 289 289 289 289 289 290 290 290 290 290 290 291 291 291 292 293 293 294 296 297
287 287 287 287 287 287 287 287 287 287 287 287 287 288 288 288 288 288 288 288 288 288 288 288 288 288 288 288 288 289 289 289 289 289 289 289 289 289 289 289 289 289 289 289 288 288 288 288 288 288 288 288 288 288 288 288 288 288 288 288 289 289 289 289 289 289 289 289 289 289 289 289 290 290 290 290 290 290 290 291 291 292 292 293 294 296
287 287 287 287 287 287 287 287 287 287 287 287 287 287 288 288 288 288 288 288 288 288 288 288 288 288 288 288 288 289 289 289 288 288 288 288 289 289 289 289 289 289 289 289 288 288 288 288 288 288 288 288 288 288 288 288 288 288 288 288 288 288 288 288 288 289 289 289 289 289 289 289 290 290 290 290 290 290 290 290 290 291 291 292 293 294
287 287 287 287 287 287 286 286 286 287 287 287 287 287 287 288 288 288 288 288 288 288 288 288 288 288 288 288 288 288 288 288 288 288 288 288 288 288 289 289 289 289 289 288 288 288 288 288 288 288 288 288 288 288 288 288 288 288 288 288 288 288 288 288 288 288 288 289 289 289 289 289 289 289 290 290 290 290 290 290 290 290 290 291 292 293
287 287 287 287 287 286 286 286 286 286 287 287 287 287 287 287 287 288 288 288 288 288 288 288 288 288 288 288 288 288 288 289 289 288 288 288 288 288 288 288 288 288 288 288 288 288 288 287 287 287 287 287 288 288 288 288 288 288 288 288 288 288 288 288 288 288 288 288 288 289 289 289 289 289 289 289 289 289 290 290 290 290 290 290 290 291
287 287 287 287 286 286 286 286 286 286 287 287 287 287 287 287 287 287 287 288 288 288 288 288 287 287 287 287 288 288 288 288 289 289 288 288 288 289 289 289 289 288 288 288 288 288 288 287 287 287 287 287 287 288 288 288 288 288 288 288 288 288 288 288 288 288 288 288 288 289 289 289 289 289 289 289 289 289 289 289 289 289 289 290 290 290
287 287 286 286 286 286 286 286 287 287 287 287 287 287 287 287 287 287 287 287 287 288 288 288 288 287 287 287 287 287 288 288 288 289 288 288 288 289 289 289 289 289 288 288 288 288 288 288 287 287 287 287 287 287 288 288 288 288 288 288 288 288 288 288 288 288 288 288 288 288 288 288 289 289 289 289 289 289 289 289 289 289 289 289 289 290
287 286 286 286 286 286 286 286 286 287 286 286 286 286 287 287 287 287 287 287 287 287 287 287 287 287 287 286 286 287 288 288 289 289 289 288 288 288 288 288 288 288 288 288 288 288 287 287 287 287 287 287 287 287 287 287 287 287 287 287 287 287 287 287 287 288 288 288 288 288 288 288 288 289 289 289 289 289 289 289 289 289 289 289 289 289
286 286 286 286 286 286 286 286 286 286 286 286 286 286 287 287 287 287 287 287 287 287 287 287 288 288 287 286 286 287 287 288 288 289 289 288 288 287 287 287 287 287 287 287 287 287 287 287 287 287 287 287 287 287 287 287 287 287 287 287 287 287 287 287 287 287 287 287 287 287 288 288 288 288 289 289 289 289 289 289 289 289 289 289 289 289
286 286 286 286 286 286 286 286 286 286 286 286 286 286 286 286 286 286 286 286 287 287 287 288 288 288 288 287 286 286 287 287 287 288 288 288 287 287 286 286 287 287 287 286 286 287 287 287 287 287 287 287 287 287 287 287 287 287 287 287 287 287 287 287 287 287 287 287 287 287 288 288 288 288 288 288 289 289 289 289 289 289 289 289 290 290
286 286 286 286 286 286 286 286 286 286 286 286 286 286 286 286 286 286 286 286 286 287 287 287 287 287 287 287 286 286 286 286 286 287 287 287 287 286 286 286 286 286 286 286 286 286 286 286 286 286 286 286 286 286 286 286 286 286 286 286 287 287 287 287 286 287 287 287 287 287 288 288 288 288 288 288 288 288 289 289 289 289 289 289 290 290
286 286 286 286 286 286 286 286 286 286 286 286 286 286 286 286 286 286 286 286 286 286 286 286 286 286 286 286 285 285 285 285 285 285 285 286 286 286 285 285 285 285 285 286 286 286 286 286 286 286 286 286 286 286 286 286 286 286 286 286 286 286 286 286 286 286 287 287 287 287 287 288 288 288 288 288 288 288 289 289 289 289 290 290 290 291
286 286 286 286 286 286 286 286 286 286 286 286 286 286 286 286 286 286 286 286 286 286 286 286 285 285 285 285 285 284 284 284 284 284 284 285 285 285 285 284 284 285 285 285 285 285 286 286 286 286 286 286 286 286 286 286 286 286 286 286 286 286 286 286 286 286 287 287 287 287 287 287 287 287 288 288 288 288 289 289 290 290 290 290 291 291
286 286 286 286 286 286 286 286 286 286 286 286 286 286 286 286 286 286 286 286 286 286 286 285 285 285 285 284 284 284 284 283 283 283 283 284 284 285 284 284 284 284 285 285 285 285 286 286 286 286 286 286 286 286 286 286 286 286 286 286 286 286 286 286 286 286 287 287 287 287 287 287 287 287 287 287 288 288 289 289 290 290 290 290 291 291
286 286 286 286 286 286 286 286 286 286 286 286 286 286 286 286 286 286 286 286 286 285 285 285 285 285 284 284 284 284 283 283 283 283 283 283 284 284 284 283 283 284 284 285 285 285 285 286 286 286 286 286 286 286 286 286 286 286 286 286 286 286 286 286 286 286 287 287 287 287 287 287 287 287 287 287 288 288 289 289 290 290 290 290 291 291
286 285 285 285 285 286 286 286 286 286 286 286 286 286 286 286 286 286 285 285 285 285 285 285 285 285 284 284 284 284 283 283 282 282 283 283 283 284 284 283 283 284 284 284 285 285 285 286 286 286 286 286 286 286 286 285 285 285 285 286 286 286 286 286 286 286 286 286 286 286 286 286 287 287 287 287 288 288 288 289 289 290 290 290 290 291
285 285 285 285 286 286 286 286 286 286 286 286 286 286 286 285 285 285 285 285 285 285 285 285 285 285 285 285 284 284 283 283 282 282 282 282 283 283 284 283 283 283 284 284 284 285 285 286 286 286 286 286 286 285 285 285 285 285 285 285 286 286 286 286 286 286 286 286 286 286 286 286 287 287 287 287 287 287 288 288 289 289 290 290 290 291
286 286 286 286 286 286 286 286 286 286 286 286 286 285 285 285 285 285 285 284 284 284 285 285 285 285 285 285 285 284 284 283 283 282 282 282 282 283 283 283 283 283 284 284 284 284 285 285 286 286 286 285 285 285 285 285 285 285 285 285 285 286 286 286 286 286 286 286 286 286 286 286 286 287 287 287 287 287 287 288 288 289 289 289 290 290
286 286 286 286 286 286 286 286 286 286 285 285 285 285 285 285 285 285 284 284 284 284 284 284 285 285 285 285 285 284 284 283 283 282 282 282 282 283 283 283 283 283 283 284 284 284 284 285 285 285 285 285 285 285 285 285 285 285 285 285 285 285 285 285 285 285 285 286 286 286 286 286 286 286 287 287 287 287 287 287 287 288 288 289 289 289
286 286 286 286 286 286 285 285 285 285 285 285 285 285 285 285 285 284 284 284 284 284 284 284 284 284 285 285 285 285 284 284 283 282 282 282 282 283 283 283 283 283 283 283 284 284 284 284 285 285 285 285 285 285 285 285 285 285 285 285 285 285 285 285 285 285 285 285 286 286 286 286 286 286 286 286 286 287 287 287 287 287 287 288 288 288
286 286 286 286 286 286 285 285 285 285 285 285 285 284 284 284 284 284 284 283 283 283 283 283 283 283 284 284 284 285 284 284 283 282 282 282 282 282 283 283 283 282 282 283 283 283 283 284 284 284 284 285 285 285 285 285 285 285 285 285 285 285 285 285 285 285 285 285 285 286 286 286 286 286 286 286 286 286 286 287 287 287 287 287 287 288
286 286 286 286 286 286 285 285 285 285 285 285 284 284 284 284 284 284 283 283 283 283 283 282 282 282 283 283 284 284 284 284 283 283 282 282 282 282 282 282 282 282 282 282 283 283 283 283 283 284 284 284 285 285 285 285 285 285 285 285 285 284 284 284 285 285 285 285 285 286 286 286 286 286 286 286 286 286 286 286 286 286 287 287 287 287
286 286 286 286 286 286 285 285 285 285 285 285 284 284 284 284 283 283 283 283 283 283 282 282 282 282 282 283 283 284 284 284 283 283 282 282 282 282 282 282 282 282 282 282 282 283 283 283 283 283 283 284 284 285 285 285 285 285 284 284 284 284 284 284 284 285 285 285 285 285 285 286 286 286 286 286 286 286 286 286 286 286 286 286 287 287
286 286 286 286 286 285 285 285 285 285 285 285 284 284 284 283 283 283 283 283 283 282 282 282 282 282 282 282 282 283 284 284 284 283 282 282 281 282 282 281 281 282 282 282 282 282 282 283 283 283 283 283 284 284 284 284 284 284 284 284 284 284 284 284 284 285 285 285 285 285 285 285 285 285 286 286 286 286 286 286 286 286 286 286 286 286
286 286 286 286 286 285 285 285 285 285 285 284 284 284 284 283 283 283 283 283 283 282 282 282 282 282 282 281 281 282 283 284 284 283 282 282 281 281 281 281 281 281 281 281 281 282 282 282 283 283 283 283 283 283 284 284 284 284 284 284 284 284 284 284 284 284 285 285 285 285 285 285 285 285 285 285 285 285 285 285 285 285 285 285 286 286
286 286 286 286 286 285 285 285 285 285 284 284 284 284 284 283 283 283 283 283 283 282 282 282 282 282 282 282 281 282 283 284 284 283 282 281 281 281 281 281 281 281 281 281 281 281 282 282 282 283 283 282 282 283 283 283 284 284 283 283 284 284 284 284 284 284 284 285 285 285 285 285 285 285 285 285 285 285 285 285 285 285 285 285 285 286
286 286 286 286 285 285 285 285 285 285 284 284 284 284 284 283 283 283 283 283 283 283 283 283 282 282 282 282 282 282 283 283 283 283 282 281 281 281 281 281 281 281 281 281 281 281 282 282 282 282 282 282 282 282 283 283 283 283 283 283 283 284 284 284 284 284 284 284 285 285 285 285 285 285 285 285 285 285 285 285 285 285 285 284 285 285
286 286 286 286 285 285 285 285 285 285 285 284 284 284 284 284 283 283 283 283 283 283 283 283 283 282 282 282 282 283 283 283 283 283 282 281 281 280 281 281 281 281 281 281 281 281 281 282 282 282 282 282 282 282 283 283 283 283 283 283 283 284 284 284 284 284 284 284 284 284 285 285 285 285 285 285 285 285 285 285 285 285 285 284 284 284
286 286 286 285 285 285 285 285 285 285 285 284 284 284 284 284 284 284 283 283 283 283 283 283 283 283 282 282 282 282 283 283 283 283 282 282 281 281 281 281 281 281 281 281 281 281 282 282 282 282 282 282 282 282 283 283 283 283 283 283 283 283 284 284 284 283 284 284 284 284 284 284 284 284 284 284 284 285 285 285 285 285 285 284 284 284
286 286 286 285 285 285 285 285 285 285 284 284 284 284 284 284 284 284 284 284 283 283 283 283 283 283 283 282 282 282 283 283 283 283 283 282 281 281 281 281 281 281 281 281 281 281 282 282 282 282 282 282 282 282 282 283 283 283 283 283 283 283 284 284 283 283 283 283 284 284 284 284 284 284 284 284 284 284 284 285 285 285 285 285 285 284
286 286 286 285 285 285 285 285 285 285 284 284 284 284 284 284 284 284 284 284 284 284 284 283 283 283 283 283 283 283 283 283 283 283 283 282 282 281 281 281 281 281 281 281 281 281 282 282 282 282 282 282 282 282 282 282 282 283 283 283 283 283 283 283 283 283 283 283 283 283 283 283 284 284 284 284 284 284 284 285 285 285 285 285 285 285
286 286 285 285 285 285 285 285 285 285 284 284 284 284 284 284 284 284 284 284 284 284 284 284 283 283 283 283 283 283 283 283 283 283 283 283 282 281 281 281 281 281 281 281 281 281 282 282 282 282 282 282 282 282 282 282 282 282 283 283 283 283 283 283 283 283 283 283 283 283 283 283 283 283 284 284 284 284 284 284 285 285 285 285 285 285
286 285 285 285 285 285 285 285 285 284 284 284 284 284 284 284 284 284 284 284 284 284 284 284 284 284 284 284 283 283 283 283 283 283 283 283 282 282 281 281 281 281 281 281 281 281 282 282 282 282 282 282 282 282 282 282 282 282 282 282 283 283 283 283 283 283 283 283 283 283 283 283 283 283 283 283 283 283 284 284 284 285 285 285 285 286
286 285 285 285 285 285 285 285 284 284 284 284 284 284 284 284 284 284 284 284 284 284 284 283 284 284 284 284 284 284 284 283 283 283 283 283 283 282 281 281 281 281 281 281 281 281 281 281 281 281 281 281 281 281 282 282 282 282 282 282 282 283 283 283 283 283 283 283 283 283 283 283 283 283 283 283 283 283 283 284 284 284 284 284 284 285
286 285 285 285 285 285 284 284 284 284 284 284 284 284 284 284 284 284 284 284 284 284 284 283 284 284 284 284 284 284 284 284 283 283 283 283 283 282 282 281 281 281 281 281 281 281 281 281 281 281 281 281 281 281 282 282 282 282 282 282 282 282 282 283 283 283 283 283 283 283 283 283 283 283 283 283 283 283 283 283 283 284 284 284 284 284
285 285 285 285 285 284 284 284 284 284 284 284 284 284 283 283 284 284 284 284 284 284 284 284 284 284 284 284 284 284 284 284 284 283 283 283 283 283 282 282 281 281 281 281 281 281 281 281 281 281 281 281 281 281 281 282 282 282 282 282 282 282 282 283 283 283 283 283 283 283 283 283 283 283 283 283 283 283 283 283 283 283 283 284 284 284
285 285 285 285 285 284 284 284 284 284 284 284 284 283 283 283 283 283 283 284 284 284 283 283 283 283 284 284 284 284 284 284 284 283 283 283 283 283 282 282 282 281 281 281 281 281 281 281 281 281 281 281 281 281 281 281 282 282 282 282 282 283 283 283 283 283 283 283 283 283 283 283 283 283 283 283 283 283 283 283 283 283 283 283 283 284
285 285 285 285 284 284 284 284 284 284 284 284 284 283 283 283 283 283 283 283 283 283 283 283 283 283 284 284 284 284 284 284 284 283 283 283 283 283 282 282 282 281 281 281 281 281 281 281 281 281 281 281 281 281 281 281 282 282 282 282 282 283 283 283 283 283 283 283 283 283 283 283 283 283 283 283 283 283 283 283 283 283 283 283 283 283
285 285 285 285 284 284 284 284 284 284 284 284 283 283 283 283 283 283 283 283 283 283 283 283 283 283 283 283 283 284 284 284 284 284 283 283 283 283 282 282 282 282 281 281 281 281 281 281 281 281 281 281 281 281 282 282 282 282 282 282 283 283 283 283 283 283 283 283 283 283 283 283 283 283 283 283 283 283 283 283 283 283 283 283 283 283
285 285 285 285 284 284 284 284 284 284 284 283 283 283 283 283 283 282 283 283 283 283 283 283 282 282 282 282 283 283 283 283 283 283 283 283 283 283 282 282 282 282 281 281 281 281 281 281 281 281 281 281 281 281 282 282 282 282 282 283 283 283 283 283 283 283 283 283 283 283 283 283 283 283 283 283 283 283 283 283 283 283 283 283 283 283
285 285 285 285 284 284 284 284 284 283 283 283 283 283 283 282 282 282 282 282 282 282 283 283 282 282 282 282 282 282 282 282 282 283 283 283 283 283 282 282 282 282 281 281 281 281 281 281 281 281 281 281 282 282 282 282 282 282 283 283 283 283 283 283 283 283 283 283 283 283 283 283 283 283 283 283 283 283 283 283 283 283 283 283 283 283
285 285 285 284 284 284 284 283 283 283 283 283 283 283 283 282 282 282 282 282 282 282 283 282 282 282 282 282 282 282 281 281 281 282 282 282 282 282 282 282 282 281 281 281 281 281 281 281 281 281 281 281 282 282 282 282 282 282 282 282 282 282 282 282 282 283 283 283 283 283 283 283 283 283 283 283 283 283 283 283 283 283 283 283 283 283
285 285 284 284 284 284 283 283 283 283 283 283 283 283 283 282 282 282 282 282 282 282 282 282 281 281 282 282 282 282 281 281 281 281 281 281 281 281 281 281 281 281 281 280 281 281 281 281 281 281 281 282 282 282 282 282 282 282 282 282 282 282 282 282 282 282 282 283 283 283 283 283 283 283 283 283 283 283 283 283 283 283 283 283 283 283
285 284 284 284 284 283 283 283 283 283 283 283 283 283 283 282 282 282 282 282 282 282 282 282 281 281 281 281 282 282 281 281 281 281 281 281 281 281 281 281 281 280 280 280 280 281 281 281 281 281 281 282 282 282 282 282 282 282 282 282 282 282 282 282 282 282 282 283 283 283 283 283 283 283 283 284 283 283 283 283 283 283 283 283 283 283
285 284 284 284 283 283 283 283 283 282 282 282 282 282 282 282 282 282 282 282 282 282 282 282 282 281 281 281 281 281 281 281 281 281 281 281 281 281 280 280 280 280 280 280 280 281 281 281 281 281 281 282 282 282 282 282 282 282 282 282 282 282 282 282 282 282 283 283 283 283 283 283 283 283 284 284 284 283 283 283 283 283 283 283 283 283
Wind_Speed
5 7 8 8 9 10 11 11 12 12 13 13 14 14 14 14 14 14 14 14 14 14 13 13 12 12 12 12 13 13 14 14 15 16 16 17 17 18 19 19 20 20 20 21 21 22 23 23 23 24 24 24 24 24 24 24 24 24 24 25 25 25 26 27 29 30 31 31 32 33 33 34 35 36 36 35 35 34 34 34 35 36 37 38 39 39
6 8 9 10 10 11 12 13 14 14 15 16 16 16 16 15 15 15 14 14 14 14 13 13 12 12 12 13 13 14 14 15 16 16 17 17 18 18 19 19 20 20 21 21 22 22 23 23 23 24 24 24 24 24 24 24 24 25 25 26 26 27 27 28 28 29 29 29 29 30 31 32 33 34 35 35 34 34 33 33 33 34 36 37 39 39
9 10 11 12 12 13 14 15 16 16 16 17 17 17 17 16 16 16 16 15 14 14 14 14 13 13 14 14 15 15 16 16 16 17 17 18 18 19 19 20 20 20 21 21 22 22 22 23 23 23 24 24 24 24 24 24 25 25 26 26 27 28 28 29 29 29 28 28 28 28 29 30 31 32 33 33 33 32 31 31 32 33 34 36 37 38
11 12 13 13 14 14 15 16 17 17 18 18 18 18 17 17 17 17 16 16 15 15 15 15 16 16 16 17 17 17 17 18 18 18 18 19 19 20 20 20 20 21 21 21 22 22 22 23 23 23 24 24 24 24 24 24 25 25 26 27 27 28 29 29 29 30 29 29 29 29 28 28 29 30 31 32 32 31 31 31 31 32 33 34 35 36
12 13 13 14 15 15 16 17 17 18 18 18 18 18 18 18 18 18 17 16 16 16 17 18 18 19 19 19 19 19 19 19 19 20 20 20 21 21 21 21 21 21 21 21 21 22 22 23 23 23 24 24 24 24 24 24 25 25 26 26 27 28 28 29 30 30 30 30 30 30 29 29 29 29 30 30 31 31 31 31 32 32 33 34 35 35
13 13 14 15 15 15 16 17 18 18 19 19 19 18 18 18 18 18 18 18 17 18 19 21 21 21 21 21 21 21 21 21 21 22 22 23 23 22 22 22 22 22 22 22 22 22 22 22 23 23 24 24 24 24 24 25 25 25 25 26 26 27 28 28 29 30 30 30 31 31 31 30 30 30 30 30 31 31 32 33 33 33 34 34 34 35
13 13 14 15 15 15 16 16 18 19 20 20 20 19 19 19 19 19 20 20 20 20 21 23 23 23 23 23 23 23 23 23 23 24 24 25 25 24 24 24 23 23 23 22 22 22 22 23 23 23 24 24 25 25 25 25 25 25 25 25 25 26 27 27 28 29 29 30 30 31 31 31 31 30 30 30 31 31 32 33 34 34 34 34 35 35
12 13 14 14 15 15 16 16 17 19 20 21 21 21 20 20 20 20 21 21 22 23 24 24 25 24 24 24 24 24 24 25 25 26 26 26 26 26 26 25 25 25 24 24 23 23 23 22 22 23 24 24 25 25 25 25 25 24 24 24 25 25 26 26 27 27 28 29 29 29 30 30 30 31 31 31 31 31 32 33 33 34 35 35 35 35
12 12 13 14 15 15 16 17 18 19 20 21 21 22 22 22 22 22 22 23 24 24 25 26 26 26 25 25 25 25 25 26 26 27 27 27 27 27 26 26 26 26 26 26 25 24 23 23 23 23 23 24 24 25 25 25 25 25 24 24 25 25 25 25 25 26 26 27 27 28 29 29 30 30 31 32 32 32 32 32 33 33 34 35 35 35
12 13 13 14 15 15 16 17 18 19 20 20 21 22 23 24 25 25 25 25 25 25 26 27 27 27 26 25 25 25 25 25 26 26 26 27 27 27 27 27 28 28 28 28 28 27 26 25 24 24 23 24 24 24 25 25 25 25 25 24 24 24 24 24 24 24 24 25 26 27 27 28 29 30 31 32 32 32 32 32 32 33 33 34 35 35
12 13 14 14 15 16 16 17 18 19 20 20 20 21 23 25 26 27 27 27 26 26 26 26 27 27 27 26 26 25 25 25 25 26 26 26 26 26 26 27 28 28 29 29 29 29 28 28 27 27 26 25 24 24 24 25 25 25 25 24 24 23 23 22 22 22 23 24 25 26 27 28 29 30 31 31 32 32 32 32 32 32 33 33 34 34
13 13 14 15 15 16 17 17 18 20 21 22 23 24 24 25 26 26 27 27 27 27 27 26 26 26 26 26 26 26 26 26 26 27 26 26 26 26 26 27 27 27 27 27 27 28 28 28 29 28 28 27 26 25 25 24 25 24 24 24 23 22 22 21 21 22 22 23 24 25 26 27 28 29 30 30 31 31 32 32 32 32 33 33 33 34
13 14 15 16 16 17 18 19 20 21 22 24 25 25 25 25 25 25 25 26 26 27 27 27 26 26 25 25 26 26 27 27 27 27 27 27 27 27 27 27 27 27 26 26 26 26 27 27 28 28 28 27 27 26 25 25 25 24 24 23 22 22 21 21 21 22 23 24 24 25 25 26 27 27 28 29 30 30 31 31 32 32 32 33 33 33
13 14 15 15 16 18 19 21 22 22 23 24 24 24 24 24 24 24 24 24 25 25 26 26 26 26 25 25 25 26 27 27 27 26 26 26 27 27 28 28 27 27 27 27 27 28 28 28 28 28 27 27 27 26 26 25 25 24 23 22 22 21 21 21 22 23 23 24 24 24 24 25 25 26 27 27 28 29 30 31 31 32 32 32 33 33
14 15 16 16 17 18 19 21 21 22 22 23 23 23 23 23 24 24 24 25 25 25 26 26 25 25 25 25 26 26 27 27 27 27 27 27 27 28 29 29 29 29 30 30 31 30 30 30 30 29 28 27 27 26 26 25 25 24 23 22 22 21 21 22 22 23 23 23 23 23 23 23 24 24 25 26 27 28 29 30 31 31 32 32 33 33
14 15 16 17 17 18 19 20 21 21 21 22 22 22 22 23 23 24 24 25 25 26 26 27 26 26 25 25 25 26 27 27 28 28 29 29 29 29 31 31 32 32 32 33 33 33 33 32 31 30 29 28 27 26 26 25 24 24 23 23 22 22 22 22 23 23 23 22 22 21 21 22 23 24 25 26 27 28 29 30 30 31 31 32 32 31
14 15 16 16 17 17 18 19 20 20 21 21 21 21 22 22 23 23 23 24 25 25 26 27 28 28 28 27 26 27 28 28 29 30 31 31 31 30 32 32 33 34 34 34 34 35 35 34 33 32 31 29 28 27 27 26 25 25 24 24 23 23 23 23 23 22 21 21 20 20 21 22 23 24 25 26 27 28 28 29 30 30 30 30 30 30
14 14 15 16 16 17 17 18 19 19 20 20 21 21 21 21 22 22 22 23 24 25 26 26 27 27 28 29 28 27 28 28 29 31 32 32 32 31 32 33 33 34 35 35 35 36 36 35 34 33 32 31 30 29 29 28 27 26 26 25 25 25 24 23 22 21 20 20 19 20 21 22 24 25 26 26 27 27 28 28 29 29 29 28 28 27
13 14 15 15 16 16 17 18 18 19 19 20 20 20 20 20 21 21 21 22 23 24 25 26 26 26 27 27 27 27 27 27 28 30 31 32 32 32 32 33 34 35 36 36 36 37 37 36 35 34 33 33 32 32 31 30 29 28 28 27 26 25 24 23 21 20 19 19 19 21 22 23 25 25 26 27 27 27 27 27 27 27 26 25 24 24
13 14 15 15 16 16 17 17 17 18 18 19 19 19 19 19 20 20 21 21 22 23 24 25 25 25 26 27 27 26 26 27 28 28 30 31 32 32 32 33 34 35 37 37 37 37 38 37 36 35 34 34 34 34 34 33 31 30 29 28 27 25 23 22 21 20 19 20 21 22 23 24 25 25 26 26 26 26 26 26 25 25 24 23 23 23
13 13 14 15 15 15 16 16 17 17 17 18 18 18 18 19 19 20 20 21 22 23 24 24 25 25 26 26 26 26 25 26 26 27 29 31 32 32 32 33 34 36 37 38 38 39 39 38 37 36 36 36 36 36 36 35 33 32 30 28 27 25 23 22 21 21 21 21 22 23 24 24 25 25 25 25 25 25 25 24 24 23 23 23 23 24
13 13 13 14 14 14 15 15 15 16 16 16 17 17 18 18 19 20 20 21 22 23 23 24 24 25 26 26 27 26 25 24 24 25 28 30 31 32 32 33 35 37 38 39 40 40 40 39 38 37 37 37 38 38 37 36 35 33 31 29 27 25 24 23 22 22 22 23 23 24 24 24 24 24 24 24 24 24 23 23 23 23 24 24 24 25
12 12 13 13 13 14 14 14 15 15 16 16 16 16 17 18 18 19 20 20 21 22 23 24 24 25 26 27 27 26 25 23 23 25 26 27 29 32 33 34 36 37 39 40 41 41 41 40 39 38 38 38 39 39 38 37 36 34 32 30 28 27 25 25 24 24 24 24 24 24 24 24 24 24 23 23 23 23 23 23 23 24 25 26 27 29
12 12 12 12 12 13 13 14 14 15 15 16 16 16 17 17 17 18 19 20 21 22 23 24 25 26 27 27 28 27 25 23 23 24 25 25 28 31 34 35 37 38 39 40 41 42 42 41 40 39 39 39 40 39 39 37 36 34 33 31 30 28 27 26 26 25 25 25 24 24 24 24 23 23 23 23 22 22 22 23 23 25 26 28 30 32
12 11 11 11 12 12 13 13 14 15 15 16 16 17 17 17 17 18 19 19 21 22 23 24 26 27 28 28 29 28 26 24 24 24 25 26 29 32 34 35 36 38 40 41 41 42 42 41 40 40 40 40 41 40 39 38 36 35 34 33 31 30 29 29 28 27 26 25 25 24 24 23 23 23 23 22 22 22 22 23 23 24 26 28 31 33
11 11 11 11 11 12 12 13 13 14 15 15 16 16 17 17 18 18 19 19 21 22 23 25 26 28 29 29 30 29 27 25 24 24 25 26 30 33 34 35 36 37 39 41 41 41 41 41 40 40 41 41 41 41 39 38 37 36 35 34 33 32 31 31 30 29 27 26 25 24 24 23 23 23 23 23 23 23 23 23 23 24 26 27 29 31
11 11 11 11 11 12 12 12 13 13 14 14 15 15 16 17 18 18 19 19 20 22 23 25 27 28 29 29 30 29 28 26 25 25 26 28 30 32 34 35 36 37 39 41 41 40 39 39 39 39 40 42 42 41 40 39 38 37 36 36 35 34 33 32 31 30 29 27 26 25 24 24 23 23 23 23 23 23 23 24 24 25 26 27 28 29
11 11 11 12 12 12 12 13 13 13 13 14 14 14 15 16 17 18 18 19 20 22 22 24 25 26 27 29 30 30 28 27 25 25 27 29 29 30 33 34 35 36 38 40 41 40 38 36 36 38 40 42 43 42 41 40 39 38 38 37 36 35 35 34 33 31 30 28 27 26 25 25 25 24 24 24 24 24 24 25 26 27 28 28 29 29
11 11 12 12 12 13 13 13 13 13 13 13 13 14 14 15 16 17 18 19 20 21 22 23 24 25 26 28 30 30 29 26 25 25 27 29 29 29 32 33 33 35 37 39 41 41 38 35 34 36 39 42 43 43 42 41 40 40 39 38 37 36 35 35 34 33 31 29 28 27 27 27 26 26 26 26 26 26 26 28 29 30 31 31 31 31
11 11 12 12 13 13 13 14 14 14 13 13 13 13 14 15 15 16 18 19 19 20 21 23 23 24 25 27 29 29 28 27 25 25 27 28 29 30 31 31 32 33 35 37 38 39 38 37 36 36 38 41 42 43 42 42 41 41 40 39 38 37 36 36 35 34 32 31 30 29 29 29 29 28 28 28 29 29 29 31 32 33 34 34 33 33
12 12 12 12 13 13 14 14 14 14 14 14 14 14 14 15 15 16 17 18 18 19 21 22 23 23 23 24 26 27 28 27 26 25 26 27 28 29 30 30 31 31 31 31 32 34 36 39 40 41 40 41 42 42 42 42 42 41 41 40 39 38 37 36 36 35 34 33 32 31 31 31 31 31 30 31 31 31 32 33 33 34 35 35 35 35
12 13 13 13 13 13 14 14 14 14 14 14 14 14 14 15 15 16 16 17 18 19 20 21 22 22 22 22 23 25 27 27 26 24 25 26 27 28 28 29 30 30 30 29 29 29 31 36 40 43 42 42 41 41 41 41 41 40 40 40 39 38 38 37 37 37 36 35 34 33 33 33 33 33 33 33 33 33 34 34 34 34 35 36 37 36
13 13 13 14 14 14 14 14 14 14 14 14 14 14 14 15 15 15 16 16 17 18 18 19 20 21 21 22 23 24 26 26 25 23 23 25 26 27 28 29 30 30 30 30 28 28 29 33 38 41 42 42 41 40 40 40 40 39 39 39 39 39 38 38 38 39 38 38 37 36 36 36 35 35 35 35 35 35 35 35 35 35 35 36 37 37
13 14 14 14 14 14 14 14 14 14 14 14 14 15 15 15 15 15 15 16 16 17 17 18 18 19 21 22 23 25 25 24 23 21 21 23 25 26 27 28 29 30 31 31 30 30 30 32 35 37 39 40 40 39 38 38 38 39 38 38 39 39 39 39 39 40 40 39 39 39 39 39 39 38 38 38 37 37 37 37 36 35 35 35 36 36
14 14 14 15 15 15 15 15 15 15 15 15 15 15 15 15 15 15 15 16 16 16 17 17 17 18 19 21 23 24 25 23 21 19 19 20 22 24 26 27 28 29 30 31 32 32 32 33 34 35 37 38 39 39 38 37 37 38 38 38 38 38 38 39 39 40 40 40 40 40 41 41 41 41 40 40 39 39 39 38 37 37 36 35 35 35
15 15 15 15 15 15 15 15 15 15 15 15 15 15 15 15 16 16 16 16 16 16 17 17 17 17 18 19 20 22 23 21 19 18 17 18 19 22 24 26 26 27 29 30 31 32 34 35 36 35 35 35 37 38 38 38 38 38 38 38 38 38 38 39 39 40 40 40 41 41 41 42 42 42 42 42 41 41 40 39 38 38 37 36 35 34
15 15 16 16 16 16 16 15 15 15 15 16 16 16 16 16 16 16 16 16 17 17 17 17 17 17 17 17 18 19 20 19 18 17 16 17 18 19 21 24 25 26 27 29 30 32 33 36 36 35 34 34 35 36 37 39 40 40 40 39 38 38 38 38 39 39 39 40 41 42 42 42 42 42 43 43 43 42 41 40 39 38 38 36 35 34
16 16 16 16 16 16 16 16 16 16 16 16 16 16 16 16 16 16 17 17 17 17 17 17 17 17 17 17 17 17 17 17 17 16 16 16 17 18 20 22 24 24 25 27 29 30 32 34 35 35 36 36 35 36 37 39 40 40 41 39 38 38 38 38 39 39 39 40 41 42 42 42 42 43 43 43 44 43 42 41 40 39 38 37 36 34
16 16 16 16 16 16 16 16 16 16 16 16 16 16 16 16 16 17 17 17 17 18 18 18 18 17 17 16 16 16 15 15 16 16 16 17 18 19 20 21 23 24 24 25 27 28 30 31 32 34 35 37 38 38 38 38 39 40 40 40 40 39 38 38 39 39 39 40 41 41 41 42 42 42 43 43 43 43 43 43 42 41 40 39 38 36
16 16 16 16 16 16 16 16 16 16 16 16 16 16 16 17 17 17 17 18 18 18 18 18 18 18 17 16 16 15 15 15 16 16 17 18 18 19 20 21 22 24 24 25 26 27 28 30 31 33 34 36 37 38 38 38 38 39 39 39 39 40 39 39 38 39 39 40 40 41 41 41 41 41 42 42 42 42 43 43 42 41 41 40 40 40
16 16 16 16 16 16 16 16 16 16 16 16 16 16 17 17 18 18 18 19 19 19 19 19 19 19 18 17 16 15 15 16 16 17 17 18 19 20 20 21 22 23 24 25 25 26 27 29 30 32 33 34 35 36 36 38 38 37 36 37 38 39 40 39 38 38 39 39 40 40 40 40 40 41 41 41 42 42 42 42 42 41 40 40 40 40
16 16 16 16 16 16 16 16 16 16 16 16 17 17 17 18 18 19 20 20 20 20 20 20 21 21 21 19 17 16 16 16 17 18 18 19 19 20 21 22 22 23 24 25 26 26 27 28 29 31 32 33 34 35 37 38 37 37 36 37 38 39 40 39 38 38 38 39 39 39 39 39 40 41 42 42 43 43 42 41 41 40 40 39 39 39
16 16 16 16 16 16 16 16 16 16 17 17 17 17 17 18 18 19 20 20 20 20 20 21 21 22 23 22 21 20 18 18 18 18 19 19 20 20 21 22 23 23 24 25 26 27 28 28 29 30 31 32 32 34 36 37 37 37 36 35 36 37 38 39 40 39 39 38 38 38 39 39 40 41 42 43 43 43 42 42 41 40 39 39 39 39
16 16 16 16 16 16 16 16 16 16 17 17 17 17 17 17 18 19 19 20 20 20 20 21 22 22 23 24 24 23 22 21 20 19 20 20 20 21 22 23 24 24 24 25 26 28 29 29 29 29 30 31 32 33 35 36 36 36 35 34 34 34 35 37 39 40 39 38 38 38 39 39 41 42 43 43 43 43 43 42 42 41 41 40 40 39
16 16 17 16 16 16 16 16 16 17 17 17 17 17 17 18 18 19 19 20 20 20 20 21 22 23 23 24 25 25 25 24 23 22 21 21 21 21 23 24 25 25 25 25 25 26 27 29 30 30 31 31 32 32 33 34 34 34 34 34 33 33 34 35 36 37 37 38 38 39 39 39 41 42 43 43 43 43 43 43 42 42 41 41 40 39
16 16 17 17 16 16 16 17 17 17 17 17 17 18 18 18 18 19 19 20 20 21 21 21 21 22 23 24 25 26 26 26 26 25 24 23 23 23 23 24 25 25 25 25 25 25 25 27 29 30 31 32 32 31 31 32 32 32 33 33 33 33 33 34 35 35 36 37 38 39 40 40 41 42 42 43 44 44 44 43 42 41 41 40 40 39
16 16 16 16 16 16 16 17 17 17 18 18 18 18 18 19 19 19 20 20 20 21 21 21 21 22 23 24 24 25 26 27 27 27 27 26 26 25 25 26 26 26 26 26 25 25 25 25 26 27 29 30 31 31 31 30 30 31 32 32 33 33 34 34 34 35 36 37 38 39 41 41 41 41 42 43 43 44 44 43 42 41 40 39 39 39
16 16 16 16 16 16 16 17 17 18 18 19 19 18 19 19 20 20 20 21 21 21 21 22 22 22 23 23 24 24 25 26 27 27 27 28 27 27 27 27 28 27 27 26 26 25 25 25 26 26 26 27 28 30 31 30 30 30 30 31 32 34 35 35 35 36 36 37 38 39 40 40 40 40 41 43 43 44 44 43 42 41 39 39 39 39
16 16 16 16 16 16 17 17 18 18 19 19 20 19 19 19 20 20 21 21 21 21 22 22 22 23 23 24 24 24 24 25 26 26 27 28 28 28 28 28 29 29 28 28 27 27 26 26 25 24 23 23 25 27 29 29 29 30 30 31 32 33 34 35 36 37 37 38 39 40 40 39 39 39 40 41 41 43 43 43 42 41 40 39 39 40
15 15 16 16 16 16 17 18 18 19 19 20 20 20 20 20 20 21 21 21 21 22 22 22 22 23 23 24 24 24 24 24 25 26 27 27 28 28 29 29 29 29 29 29 29 28 28 27 26 24 22 21 22 24 27 29 30 31 31 31 32 32 33 35 36 37 38 39 40 40 40 40 39 39 39 39 40 41 43 43 43 42 42 41 41 42
15 15 15 16 16 17 17 18 18 19 20 20 21 21 21 21 21 21 21 21 22 22 22 22 22 23 23 24 24 24 24 24 25 26 26 27 27 27 28 28 29 29 29 29 29 29 28 27 26 25 24 23 22 22 25 28 30 31 32 33 33 33 33 36 37 37 38 39 39 39 39 39 39 38 38 38 39 41 42 43 43 43 44 43 43 43
Wind_Direction
17 14 10 7 6 6 6 2 1 1 360 358 358 359 359 359 359 359 359 358 356 353 350 347 344 343 342 343 346 348 350 351 351 350 349 349 349 349 349 348 346 344 343 341 339 338 337 335 334 333 332 331 330 328 327 325 323 322 319 317 314 312 309 308 307 306 306 304 303 301 299 298 297 296 295 294 292 290 287 284 281 278 275 271 268 265
27 21 17 13 11 11 10 7 7 7 5 4 2 2 2 3 3 4 5 4 3 360 357 355 354 354 356 358 359 0 0 359 358 356 355 355 354 354 353 351 348 346 344 342 340 339 337 336 335 334 333 332 331 330 329 327 326 324 322 320 318 316 314 313 313 312 311 310 308 305 303 301 299 298 297 296 294 293 290 287 284 281 277 274 271 268
26 23 20 17 15 14 13 11 11 11 9 8 6 6 6 5 6 8 9 10 9 7 6 6 5 7 8 9 10 9 8 6 3 1 0 360 359 358 356 353 350 347 345 343 341 339 337 336 335 334 333 333 333 332 331 329 328 327 325 323 321 320 318 317 317 316 315 313 311 309 306 304 301 299 297 296 295 294 292 289 285 282 279 276 273 270
24 23 20 19 18 17 15 13 12 12 12 10 9 9 9 9 10 11 12 12 12 13 14 14 14 14 15 14 14 13 10 8 6 4 4 3 2 0 357 354 351 348 346 343 341 339 338 336 335 334 334 334 334 334 333 332 330 329 327 325 324 322 321 320 319 318 317 315 313 312 309 306 303 300 298 296 296 294 292 289 285 281 279 276 274 273
27 24 21 21 21 20 16 14 12 11 11 11 10 10 11 11 12 13 14 14 15 16 17 18 18 17 16 14 13 12 10 8 6 5 5 4 2 0 357 355 352 349 346 344 342 340 338 337 336 335 335 335 335 335 334 333 332 330 328 327 325 324 323 322 320 319 318 316 315 313 311 309 306 303 300 297 296 295 293 290 287 283 280 277 276 274
30 26 24 23 23 21 18 14 11 9 8 9 10 11 12 12 13 13 14 15 16 17 18 18 18 16 14 12 11 9 8 7 6 5 4 2 1 358 356 354 352 349 347 346 344 342 340 339 338 337 337 336 336 335 335 334 333 331 330 328 327 325 324 323 322 321 319 318 316 315 313 311 309 306 303 300 298 296 294 292 289 286 283 280 278 276
31 28 26 26 25 23 19 14 10 8 7 8 9 10 11 12 13 14 15 15 15 15 16 16 16 14 12 10 9 7 7 6 5 4 2 0 358 356 354 352 351 350 349 348 347 345 344 342 341 340 338 337 336 335 335 334 333 332 331 329 328 327 326 325 323 322 320 319 317 316 314 313 311 310 307 305 302 299 297 294 292 290 287 284 281 278
31 29 27 26 24 22 20 15 11 9 8 8 8 8 9 10 13 15 16 16 15 14 13 13 13 12 11 9 7 6 5 5 3 2 0 358 355 353 352 351 350 350 350 350 350 349 347 345 344 342 340 338 336 335 334 334 333 332 331 330 330 329 328 326 325 323 321 320 318 317 316 315 314 312 310 308 306 303 300 298 295 293 291 288 285 282
31 30 29 27 24 20 17 14 13 11 9 9 8 8 7 8 10 13 15 16 15 13 11 10 9 9 8 7 6 5 4 3 1 360 358 356 354 352 351 350 350 351 351 351 351 351 350 348 347 344 342 339 337 335 334 333 333 332 332 331 331 330 329 327 326 324 322 321 319 318 317 316 315 313 312 310 308 306 304 302 299 296 293 291 288 286
31 31 30 28 25 21 16 12 11 11 10 10 10 10 9 8 8 9 12 13 13 12 11 9 8 7 6 5 5 4 3 1 359 358 357 356 354 352 351 352 352 353 353 353 353 352 351 350 349 347 344 341 338 336 334 333 332 332 332 332 332 331 330 328 327 325 324 323 322 320 319 317 316 314 312 311 310 308 307 305 302 299 296 294 291 289
31 31 30 29 26 22 18 14 11 10 10 10 11 12 12 10 8 8 8 9 9 9 9 9 9 7 5 4 3 2 0 358 357 356 356 356 354 353 353 354 355 355 355 355 354 353 352 350 349 348 346 343 340 338 335 333 332 331 331 331 331 331 330 329 328 328 327 327 325 323 321 318 316 314 313 312 311 310 309 307 305 302 300 297 295 292
32 31 30 28 25 21 17 15 13 11 10 10 11 13 13 12 10 8 7 6 5 5 6 7 9 9 8 5 2 360 358 356 354 355 356 355 354 353 353 354 355 355 355 355 354 353 351 349 348 347 346 344 342 339 336 334 333 332 331 331 331 330 330 330 330 331 332 331 329 326 322 319 317 315 314 313 312 311 310 308 306 305 302 300 298 296
31 31 30 28 24 20 17 15 14 13 12 12 11 11 10 10 9 7 6 5 4 3 2 3 6 9 10 7 3 359 356 354 352 353 354 356 355 353 353 354 355 356 356 355 355 354 352 349 348 346 345 344 341 339 337 336 334 333 332 332 331 330 330 331 333 334 334 332 330 326 323 320 318 316 315 314 312 311 310 308 307 305 304 302 300 298
30 29 28 26 23 19 16 15 13 13 13 12 11 10 9 8 6 5 4 4 4 2 1 1 3 8 11 9 4 359 355 352 350 350 353 356 357 355 354 355 357 358 358 358 357 356 355 353 351 349 347 345 343 341 339 338 337 336 334 333 332 332 332 334 335 336 334 331 328 325 322 319 318 317 316 315 313 312 310 308 306 305 303 302 301 300
27 28 28 26 23 19 16 14 13 12 12 11 10 8 7 6 5 4 4 3 2 1 0 359 360 4 10 9 4 358 355 351 349 349 352 358 360 359 357 357 358 360 1 359 358 358 357 356 355 353 351 349 347 345 343 342 340 339 338 336 335 335 336 337 337 335 333 329 326 323 320 319 318 318 317 316 313 311 309 307 306 304 304 303 303 302
24 25 27 25 22 18 15 14 12 11 10 9 8 7 6 6 5 4 3 2 1 360 359 358 357 360 4 5 3 358 355 352 350 350 353 359 2 1 359 358 358 359 0 359 358 358 358 358 357 356 355 353 352 350 348 346 345 343 342 340 340 340 340 339 337 334 331 327 324 322 321 321 321 320 319 316 314 311 309 307 306 305 305 305 306 307
21 22 23 23 20 17 14 12 10 9 8 7 6 6 6 5 4 3 2 0 359 359 359 359 358 358 359 2 2 359 356 354 352 351 353 358 1 2 360 358 357 357 358 358 358 357 358 358 358 358 358 357 355 354 353 351 349 348 347 346 345 344 343 340 337 333 330 326 324 323 324 324 324 323 320 317 314 311 309 308 307 306 307 308 310 311
18 18 20 20 18 15 12 10 8 7 6 5 4 4 4 3 2 1 360 358 358 358 358 359 359 358 357 359 0 0 357 355 353 351 351 353 358 0 359 357 355 355 356 356 356 357 357 358 359 359 359 359 358 357 356 354 353 352 351 350 349 347 344 341 337 333 330 327 326 326 327 327 326 324 321 318 315 313 311 310 309 309 310 311 313 314
15 15 16 16 15 13 11 9 6 5 4 3 1 0 0 359 359 358 357 357 357 357 357 358 358 357 355 356 358 360 359 356 352 349 347 347 352 357 357 355 353 352 353 354 355 355 356 357 358 359 359 359 359 358 357 357 356 355 354 352 351 348 345 342 338 335 332 331 330 331 331 329 327 324 321 318 316 314 312 311 311 311 311 312 314 316
14 14 14 14 12 10 8 6 4 2 0 358 356 355 355 355 354 355 355 355 355 355 356 356 356 354 353 354 357 360 359 357 352 346 342 342 347 353 354 352 349 349 350 352 353 354 354 355 356 358 359 359 359 358 358 357 357 356 355 353 351 348 346 343 341 339 337 336 335 334 332 330 326 323 320 318 316 315 313 312 311 310 310 309 311 314
13 13 10 9 8 7 4 1 359 358 355 352 350 350 350 350 351 352 352 353 353 353 353 353 352 351 351 352 356 360 360 357 350 343 339 339 343 348 350 348 346 345 347 349 351 352 352 353 355 356 357 358 358 358 357 357 356 355 354 352 350 349 347 346 344 343 342 340 338 336 333 329 326 324 321 319 317 315 313 312 310 308 307 305 306 307
11 10 7 5 3 1 358 356 353 351 349 346 345 345 346 347 349 349 350 350 350 350 350 349 349 349 350 351 355 359 1 357 350 343 339 336 339 344 347 346 344 343 345 347 348 349 350 351 353 355 356 357 357 356 356 356 355 354 352 351 350 349 349 349 348 347 345 343 340 337 333 330 327 325 323 321 319 317 314 311 309 306 304 301 299 299
7 6 2 359 356 353 350 347 345 343 342 341 341 341 343 344 346 346 347 347 346 346 346 346 347 348 349 350 354 359 1 358 352 346 340 334 334 339 344 344 342 342 343 345 346 347 348 350 351 353 354 355 355 355 354 354 353 352 351 351 350 350 351 351 350 349 347 345 341 338 335 331 329 326 325 323 321 319 316 312 308 304 301 298 296 294
1 358 355 351 347 344 341 339 338 336 336 336 336 337 338 340 341 342 343 343 343 343 343 344 345 346 347 349 353 357 359 358 354 348 342 333 331 335 341 343 342 341 341 343 344 344 345 347 350 352 353 353 353 353 353 352 352 351 351 350 351 351 352 352 352 350 348 345 342 339 336 333 331 328 327 325 324 322 318 314 309 304 300 297 295 294
352 349 345 341 338 336 334 333 332 331 330 331 331 332 333 335 337 338 340 340 340 340 341 341 342 344 347 348 350 353 357 358 356 351 343 334 331 333 339 342 341 339 339 341 342 343 343 345 347 350 351 351 351 351 351 351 351 350 350 351 351 352 352 352 352 350 349 346 343 340 338 335 333 331 330 328 327 325 322 319 314 309 304 300 297 296
343 340 336 333 331 330 328 328 327 326 325 325 326 327 328 331 333 335 336 337 336 336 337 338 339 341 344 345 347 349 353 356 356 352 344 335 331 333 338 342 341 339 338 339 340 341 341 343 345 347 348 349 349 349 350 350 350 350 350 351 351 352 352 352 352 350 348 346 344 342 340 338 336 334 333 332 331 330 328 326 322 318 313 307 303 300
336 333 331 328 326 324 323 322 321 320 320 320 321 322 325 327 330 331 332 332 333 334 335 335 336 337 339 341 342 345 350 355 355 350 343 336 332 332 336 340 341 339 337 338 338 339 339 340 342 344 345 346 347 347 349 350 350 350 350 351 351 351 352 352 351 350 349 347 345 344 342 341 340 339 338 337 336 335 334 333 331 327 323 318 313 310
331 329 326 323 322 321 319 318 317 317 316 316 317 319 321 323 325 326 327 328 330 332 332 331 331 331 333 334 337 341 347 352 352 347 341 336 333 332 335 339 340 339 337 336 336 337 337 338 339 341 342 343 344 346 348 349 350 350 350 350 350 350 351 351 351 350 349 348 347 346 345 345 344 344 343 343 343 342 342 341 339 336 333 329 325 322
328 326 323 322 320 320 319 318 317 316 315 315 315 316 318 319 320 321 323 326 328 328 327 327 327 327 328 330 333 338 344 348 349 345 341 337 333 332 335 338 339 339 338 336 335 335 335 335 336 337 338 340 342 345 347 349 349 349 349 348 349 349 350 350 350 350 349 349 348 348 348 348 348 348 348 348 348 348 347 347 346 343 339 335 332 330
327 325 323 322 321 320 320 320 319 317 316 316 316 316 316 317 317 318 320 323 324 324 322 323 324 325 326 328 330 333 337 344 347 346 341 337 333 332 334 335 337 339 339 336 334 332 331 332 333 334 335 337 340 343 345 347 348 347 347 347 347 348 349 349 349 349 349 349 349 349 349 350 349 349 350 350 350 350 350 350 348 345 341 337 335 333
329 327 326 325 323 323 323 322 321 320 319 318 317 316 316 316 317 317 318 319 319 318 318 319 321 323 325 325 324 324 327 338 346 347 342 336 332 330 332 332 333 336 338 336 332 328 326 328 330 332 334 335 337 340 343 344 345 345 345 345 345 347 348 349 349 349 350 350 350 351 351 351 350 350 350 350 350 350 350 349 347 343 340 337 336 335
331 330 329 329 328 327 326 325 324 323 322 321 319 318 316 316 315 316 316 315 316 316 316 317 319 322 324 323 319 318 322 335 344 347 342 335 330 329 332 331 330 332 335 334 329 324 320 321 325 329 331 332 334 336 339 341 342 343 343 342 342 344 347 348 348 349 350 350 351 351 351 351 351 350 350 350 349 349 348 347 344 341 338 337 336 336
333 333 333 332 332 331 330 329 327 326 324 322 321 319 318 317 316 316 316 316 317 316 316 317 319 322 324 323 321 321 326 335 342 345 341 334 329 328 330 329 328 328 330 331 328 322 317 317 320 324 327 329 330 332 335 338 339 340 341 340 340 342 346 347 348 348 349 350 350 351 351 351 350 350 349 348 348 347 346 344 342 339 337 336 336 336
334 335 335 335 335 334 333 331 330 328 327 325 323 322 321 320 319 318 318 319 319 318 318 319 321 323 323 322 322 324 329 337 342 344 341 335 330 327 328 328 327 327 327 328 326 323 319 318 319 321 323 325 327 329 331 333 336 338 339 339 339 340 343 346 346 346 347 348 348 349 350 350 349 348 348 347 346 345 343 342 340 339 338 337 336 336
334 335 336 336 336 335 334 333 331 330 329 328 326 325 324 323 322 321 321 320 320 319 319 320 323 324 324 322 321 323 328 336 343 345 344 338 332 329 327 327 328 328 327 326 325 323 320 319 319 319 320 321 323 326 328 330 333 335 337 339 339 340 342 344 344 344 344 345 346 347 347 347 347 346 345 344 343 342 341 340 340 339 339 339 338 337
332 334 335 335 335 335 334 333 332 331 330 329 328 327 326 325 324 323 322 322 321 321 321 323 324 325 326 324 322 323 328 336 343 347 347 342 337 331 327 327 330 331 328 325 324 323 321 320 319 319 319 319 320 322 325 329 331 333 335 337 339 340 341 342 342 341 341 342 343 344 344 344 343 343 342 342 341 340 339 339 339 339 340 340 340 339
330 332 333 334 334 333 333 333 332 332 331 330 329 328 327 326 325 325 324 324 324 324 324 326 327 328 328 328 327 327 330 336 342 345 346 344 340 334 329 328 331 333 330 326 323 322 320 319 319 318 318 317 317 319 321 326 329 331 332 335 336 337 339 341 341 340 339 339 340 341 341 341 340 340 339 339 339 339 339 339 339 340 340 340 341 341
328 330 331 331 331 331 331 332 332 331 330 330 329 329 328 327 326 326 326 326 326 327 327 328 329 330 331 331 330 331 333 336 339 342 345 344 342 337 333 331 331 331 330 326 324 322 319 318 317 316 316 316 316 317 319 322 325 327 329 332 334 335 336 338 339 339 338 338 338 338 338 338 337 337 337 338 338 338 337 338 339 340 341 341 341 341
325 326 328 328 329 330 330 330 330 330 329 328 328 328 327 327 327 327 327 328 328 329 329 329 330 331 332 333 333 334 335 337 338 340 343 344 343 340 336 333 331 331 330 327 324 322 319 316 314 313 314 314 315 317 319 321 322 324 327 329 331 333 336 337 337 337 337 336 336 335 335 335 335 335 335 335 335 335 335 336 337 339 340 340 340 340
322 324 325 326 327 328 328 329 328 327 327 327 327 327 327 327 327 327 328 329 329 330 330 329 329 330 331 332 334 336 336 337 337 339 341 342 343 342 339 335 331 330 329 326 323 320 318 315 313 312 313 313 314 315 317 319 321 323 325 325 325 328 332 334 334 334 335 334 333 333 332 333 333 333 332 332 332 333 333 334 336 337 339 339 339 339
319 321 322 324 325 325 325 325 325 325 326 327 328 328 329 329 329 329 329 329 330 330 330 329 328 327 328 331 333 335 336 336 336 337 339 341 342 343 342 338 335 331 329 325 322 319 318 316 315 314 314 315 314 314 315 316 319 322 322 321 322 324 328 330 331 331 332 332 331 331 330 330 330 331 331 331 332 333 334 334 334 335 337 338 338 337
317 318 320 321 322 322 323 323 324 325 326 327 329 329 330 330 330 330 330 330 331 331 330 328 327 326 327 329 331 333 334 335 335 336 337 339 341 342 343 341 338 335 331 326 323 321 321 320 318 316 316 316 315 314 314 316 320 322 322 321 322 324 326 327 328 329 329 328 329 329 329 328 328 329 329 330 331 333 335 335 335 334 334 335 336 336
315 317 318 319 319 320 321 323 324 325 325 327 328 329 330 330 330 330 330 330 331 330 329 328 327 326 326 327 329 330 332 333 333 335 336 338 340 342 343 342 341 338 334 329 326 325 325 324 321 319 319 319 316 313 313 315 318 321 322 323 323 321 320 322 325 327 326 326 326 327 327 327 328 328 329 330 331 333 335 335 335 334 334 334 335 335
315 316 316 317 317 319 320 321 322 323 324 325 327 328 329 330 330 330 330 330 329 329 329 327 326 325 326 326 328 329 330 331 332 334 336 338 340 341 342 342 341 340 337 332 328 326 326 325 323 322 322 320 317 314 313 315 316 318 320 322 322 319 317 318 321 323 323 323 325 326 327 328 328 328 329 330 331 333 333 334 334 335 335 335 335 334
314 314 314 315 315 316 317 318 319 321 322 323 325 327 329 329 330 330 330 330 329 329 329 328 327 327 326 327 328 328 328 330 331 333 336 338 339 340 340 341 341 339 338 334 332 329 327 324 323 324 324 321 318 314 313 314 316 317 318 320 320 319 317 318 319 320 320 322 323 326 328 329 329 328 327 329 330 331 332 332 332 333 334 334 333 332
312 312 312 313 313 314 315 316 318 319 320 321 323 326 328 328 329 329 330 330 330 330 329 328 328 327 326 327 328 329 329 330 331 333 335 337 338 339 339 339 339 338 337 335 334 332 330 326 324 323 323 321 318 315 315 316 315 315 317 318 318 318 317 317 318 319 320 321 324 327 330 331 329 327 326 327 328 329 330 330 330 330 331 331 331 330
308 309 309 310 312 313 314 315 317 318 319 321 323 325 326 327 328 329 329 330 330 330 329 329 328 328 327 327 328 329 329 329 330 332 335 336 337 337 337 338 338 338 337 336 334 333 332 330 328 325 321 319 316 316 317 317 316 315 315 316 316 316 316 317 318 321 322 323 325 328 331 331 329 327 326 326 326 327 328 329 329 329 329 329 328 328
305 306 308 309 311 312 314 315 316 317 319 320 321 323 325 326 327 328 329 329 329 329 329 329 329 329 328 328 329 329 328 328 329 330 332 335 335 334 334 336 337 337 337 336 335 333 331 330 329 328 324 319 315 314 315 315 315 314 314 314 315 315 316 317 320 323 324 325 327 329 330 328 326 324 324 324 324 324 325 326 327 327 327 327 327 327
304 305 307 309 310 311 313 314 315 316 317 319 320 321 323 324 325 326 327 327 327 328 329 330 329 328 327 327 328 328 328 328 328 328 329 331 333 333 333 334 335 336 335 335 333 331 329 328 328 328 326 322 316 312 311 312 313 313 314 314 315 316 317 319 321 323 325 326 329 330 330 328 326 324 324 322 321 321 322 323 324 325 326 327 327 326
302 304 305 307 308 310 311 312 314 315 316 318 319 320 321 322 323 324 324 325 325 326 327 328 328 327 325 326 328 329 328 327 326 326 327 330 331 332 333 334 336 335 332 332 331 330 329 327 326 326 325 323 319 315 313 313 314 315 316 316 318 318 318 319 321 324 326 327 328 329 328 327 326 325 323 321 319 319 320 321 322 324 325 327 327 327
302 303 304 306 307 308 309 310 311 313 314 316 317 319 319 320 321 322 322 323 323 323 324 324 325 326 325 326 327 328 327 326 325 325 326 329 331 331 332 333 334 333 331 330 329 328 327 324 322 322 323 326 325 320 316 315 315 316 317 318 320 320 319 320 322 324 326 327 327 327 326 325 324 323 322 320 319 318 318 319 320 322 325 327 327 327